Location: New Frontier Mobile Home Park
(32.8448°N, 116.9675°W)
Time: 23:00:27
(UTC+00:00)

Cosmos-2242 - Pass Details

Date: 14 July 2020
Orbit: 592 x 616 km, 82.5° (Epoch: 05 August)

Event Time Altitude Azimuth Distance (km) Brightness Sun altitude
Rises 03:22:42 0° 7° (N) 2,880 6.8 -5.5°
Reaches altitude 10° 03:25:11 10° 19° (NNE) 1,975 5.8 -5.9°
Maximum altitude 03:28:57 28° 79° (ENE) 1,164 4.1 -6.6°
Drops below altitude 10° 03:32:43 10° 138° (SE) 1,970 5.0 -7.3°
Enters shadow 03:33:17 - 142° (SE) 2,170 5.3 -7.4°
